Location: *
(44.7294°N, 0.5994°W)
Time: 03:58:36
(UTC+00:00)

Daily predictions for brighter satellites

Satellite Brightness Start Highest point End
(mag) Time Altitude Azimuth Time Altitude Azimuth Time Altitude Azimuth
SL-16 R/B 4.2 00:53:22 28° NNE 00:53:22 28° NNE 00:56:40 10° N
ADEOS II 3.9 01:53:11 10° NE 01:56:26 26° ENE 01:56:26 26° ENE
CENTAUR R/B 4.0 01:59:00 28° E 01:59:00 28° E 02:03:47 10° NE
Cosmos 2369 Rocket 3.7 02:07:32 32° E 02:07:32 32° E 02:11:30 10° NE
Lacrosse 5 4.0 02:08:51 22° N 02:09:09 22° N 02:13:03 10° ENE
Resurs 1-4 Rocket 3.7 02:07:38 10° N 02:10:11 29° N 02:10:11 29° N
USA 238 DEB 3.8 02:21:37 68° NNE 02:21:37 68° NNE 02:27:39 10° NE
USA 238 3.8 02:21:42 69° NNE 02:21:42 69° NNE 02:27:45 10° NE
Cosmos 2278 Rocket 4.2 02:32:51 18° NNW 02:32:51 18° NNW 02:35:35 10° N
SL-16 R/B 4.3 02:38:28 20° NW 02:38:28 20° NW 02:40:24 10° NNW
ARIANE 5 R/B 3.3 02:33:08 10° NNE 02:36:58 49° NE 02:36:58 49° NE
SME Rocket 4.4 02:35:38 10° N 02:41:10 51° NNW 02:41:10 51° NNW
Cosmos 1943 Rocket 2.3 02:49:36 68° NE 02:49:36 68° NE 02:54:27 10° NNE
CZ-2D R/B 3.6 02:47:14 10° N 02:49:54 25° NNW 02:49:54 25° NNW
Nadezhda 4 Rocket 4.0 02:52:12 70° SE 02:52:44 75° E 02:58:51 10° NNE
NOSS 3-3 (A) 4.4 02:46:04 10° NW 02:53:35 69° WSW 03:01:48 10° SSE
NOSS 3-3 (C) 4.4 02:46:10 10° NW 02:53:41 69° WSW 03:01:55 10° SSE
Cosmos 2344 3.4 02:54:20 67° WSW 02:55:28 81° NW 03:03:45 10° NE
Cosmos 1782 4.5 03:01:20 31° NNE 03:01:20 31° NNE 03:03:31 10° NNE
ATLAS 5 CENTAUR R/B 4.2 03:00:29 13° NNW 03:01:03 13° NNW 03:03:27 10° N
NOSS 3-2 (A) 3.7 03:04:27 54° NW 03:04:35 54° NW 03:11:05 10° NNE
ATLAS 3B R/B 2.5 03:06:39 67° SSW 03:07:39 86° SE 03:14:17 10° NE
Lacrosse 5 rocket 3.7 03:11:37 16° SE 03:11:37 16° SE 03:12:30 10° SE
NOSS 3-2 (C) 3.3 03:08:07 70° WNW 03:08:27 72° NW 03:15:05 10° NE
Cosmos 1400 Rocket 3.9 03:11:56 41° E 03:11:56 41° E 03:15:18 10° NNE
Unknown 4.5 03:12:58 49° NE 03:12:58 49° NE 03:16:03 10° NE
Unknown 4.4 03:14:32 50° NE 03:14:32 50° NE 03:17:41 10° NE
BREEZE-M DEB (TANK) 4.4 03:12:18 49° WNW 03:14:08 87° SSW 03:32:28 10° ESE
Unknown 4.5 03:16:03 46° NE 03:16:03 46° NE 03:19:05 10° NE
Unknown 4.3 03:16:25 52° NE 03:16:25 52° NE 03:19:39 10° NE
Unknown 4.3 03:17:37 54° NE 03:17:37 54° NE 03:20:53 10° NE
Cosmos 2263 4.0 03:17:42 72° SSW 03:18:19 90° ESE 03:23:58 10° NNE
Unknown 4.1 03:20:47 58° NE 03:20:47 58° NE 03:24:12 10° NE
CZ-2D R/B 4.5 03:16:33 10° N 03:19:06 37° N 03:19:06 37° N
Unknown 4.1 03:22:24 59° NE 03:22:24 59° NE 03:25:52 10° NE
IDEFIX/ARIANE 42P 3.8 03:18:01 10° NNE 03:22:59 39° E 03:27:33 12° SSE
Unknown 4.0 03:24:10 59° NNE 03:24:10 59° NNE 03:27:42 10° NE
Unknown 4.0 03:25:26 58° NNE 03:25:26 58° NNE 03:28:56 10° NE
Unknown 3.9 03:25:36 63° NNE 03:25:36 63° NNE 03:29:12 10° NE
H-2A R/B 4.4 03:22:40 10° NE 03:25:50 24° E 03:28:28 13° SSE
Unknown 3.9 03:27:10 63° NNE 03:27:10 63° NNE 03:30:50 10° NE
Iridium 4 Rocket 3.5 03:26:11 37° SSE 03:27:41 59° E 03:31:53 10° N
Unknown 3.8 03:30:23 65° N 03:30:23 65° N 03:34:10 10° NE
Cosmos 2026 Rocket 4.3 03:26:46 17° S 03:31:40 68° E 03:38:00 10° NNE
Unknown 3.8 03:31:59 65° N 03:31:59 65° N 03:35:50 10° NE
Unknown 3.8 03:33:35 65° N 03:33:35 65° N 03:37:29 10° NE
Unknown 3.8 03:35:11 64° NNW 03:35:11 64° NNW 03:39:10 10° NE
CZ-2C R/B 3.5 03:32:23 10° N 03:35:23 45° NNW 03:35:23 45° NNW
Meteor 1-14 Rocket 4.3 03:31:17 10° NNW 03:36:22 49° W 03:36:22 49° W
Timation 2 Rocket 4.1 03:30:44 10° NNW 03:36:47 68° ENE 03:42:42 10° SE
ADEOS II 2.7 03:32:42 10° N 03:37:22 38° WNW 03:37:22 38° WNW
Spot 4 Rocket 4.4 03:33:17 10° N 03:38:08 44° WNW 03:38:08 44° WNW
Unknown 3.7 03:38:22 61° NNW 03:38:22 61° NNW 03:42:29 10° NE
Unknown 3.9 03:40:15 55° NNW 03:40:20 55° NNW 03:44:26 10° NE
Unknown 3.9 03:41:48 54° NW 03:41:57 54° NNW 03:46:03 10° NE
Unknown 3.8 03:41:58 57° NW 03:42:07 57° NNW 03:46:13 10° NE
Cosmos 1656 Rocket 3.6 03:41:58 38° SSW 03:44:16 88° ESE 03:49:58 10° NNE
Unknown 3.8 03:44:45 55° NW 03:45:02 56° NNW 03:49:07 10° NE
CENTAUR R/B 2.7 03:46:12 40° WSW 03:48:18 59° NW 03:55:21 10° NNE
Unknown 3.9 03:47:57 51° NW 03:48:22 54° NNW 03:52:27 10° NE
Unknown 3.9 03:49:33 49° NW 03:50:02 53° NNW 03:54:06 10° NE
Cosmos 2369 Rocket 2.8 03:49:20 36° W 03:50:22 40° NW 03:55:42 10° NNE
CZ-2C R/B 4.3 03:46:48 10° NE 03:51:07 30° E 03:55:31 10° SSE
Cosmos 2195 Rocket 4.4 03:47:19 24° SSW 03:51:20 76° W 03:57:37 10° N
Unknown 3.9 03:51:09 47° NW 03:51:42 51° NNW 03:55:46 10° NE
Resurs 1-4 Rocket 4.2 03:50:17 10° NW 03:51:16 11° NW 03:51:16 11° NW
Lacrosse 5 2.7 03:48:14 10° NW 03:53:09 48° NNE 03:58:02 10° ESE
Unknown 4.0 03:52:46 46° WNW 03:53:23 50° NNW 03:57:26 10° NE
Cosmos 1707 Rocket 4.1 03:57:01 38° WNW 03:57:01 38° WNW 04:00:59 10° N
Cosmos 44 3.4 03:55:43 44° WSW 03:57:06 62° NW 04:01:52 10° NNE
PSLV R/B 3.8 03:53:43 10° SSE 03:57:52 87° WSW 04:02:01 10° NNW
Cosmos 1833 4.2 03:53:54 10° NNW 03:59:23 56° WSW 04:04:51 10° S
Unknown 4.2 03:59:07 39° WNW 04:00:01 47° NNW 04:04:03 10° NE
Cosmos 1500 3.3 03:56:58 10° N 04:00:43 73° E 04:04:28 10° SSE
Unknown 4.2 04:00:44 38° WNW 04:01:43 46° NNW 04:05:43 10° NE
Unknown 4.2 04:02:19 36° WNW 04:03:22 45° NNW 04:07:23 10° NE
PSLV R/B 3.5 03:59:48 10° NNE 04:04:13 86° WNW 04:07:00 22° SSW
Unknown 4.3 04:03:54 35° WNW 04:05:03 44° NNW 04:09:02 10° NE
Meteor 2-6 Rocket 4.4 04:02:23 26° SSW 04:05:42 59° WNW 04:11:36 10° N
Cosmos 1733 Rocket 3.1 04:01:38 10° NNW 04:06:01 57° W 04:10:07 11° S
Cosmos 1428 Rocket 4.4 03:59:48 10° SSW 04:06:07 79° W 04:12:26 10° N
Unknown 4.3 04:05:32 34° WNW 04:06:44 43° NNW 04:10:43 10° NE
Unknown 4.4 04:08:44 31° WNW 04:10:06 42° NNW 04:14:03 10° NE
SeaSat 1 2.5 04:05:13 10° NNE 04:10:11 78° ESE 04:14:09 16° SSW
Starlink (trailer) 4.4 04:10:16 30° WNW 04:11:42 41° NNW 04:15:39 10° NE
Unknown 4.4 04:11:55 29° WNW 04:13:26 40° NNW 04:17:22 10° NE
Atlas Centaur 2 4.0 04:12:06 17° SSW 04:14:07 20° S 04:19:16 10° SSE
Unknown 4.4 04:13:30 28° WNW 04:15:05 40° NNW 04:19:01 10° NE
Meteor 1-27 Rocket 3.7 04:10:15 10° S 04:16:09 85° WNW 04:21:57 10° N
ARIANE 5 R/B 4.0 04:13:27 10° NNW 04:16:48 18° WNW 04:17:18 18° WNW
SL-4 R/B 1.7 04:17:01 40° W 04:17:51 51° SW 04:21:24 10° SE
Cosmos 1092 Rocket 4.5 04:15:54 24° SW 04:18:54 38° WNW 04:24:38 10° N
ADEOS 3.6 04:15:58 10° N 04:21:06 59° WNW 04:25:28 14° SSW
COSMOS 2441 4.5 04:18:20 10° NNE 04:23:14 80° ESE 04:28:08 10° S
Cosmos 1812 2.8 04:23:31 20° SSW 04:26:00 54° W 04:29:49 10° N
ATLAS CENTAUR R/B 4.3 04:23:47 10° N 04:26:52 17° NE 04:29:47 10° ENE
PAYLOAD A 3.9 04:23:57 10° NNE 04:28:44 81° ESE 04:33:24 10° S
Cosmos 1315 Rocket 2.9 04:27:31 13° SSW 04:31:06 58° WNW 04:35:13 10° N
Meteor 1-11 Rocket 3.8 04:25:51 10° NNW 04:31:17 53° W 04:36:38 10° S
Cosmos 1943 Rocket 3.7 04:31:08 15° WNW 04:33:21 19° NW 04:37:14 10° N
BREEZE-M DEB (TANK) 3.2 04:29:35 16° W 04:37:39 77° N 04:41:00 10° E
Cosmos 2266 Rocket 4.2 04:32:46 10° S 04:38:50 73° E 04:44:52 10° NNE
Cosmos 1782 Rocket 3.8 04:35:35 10° N 04:39:58 74° E 04:44:21 10° SSE
USA 215 3.5 04:34:51 10° NE 04:41:23 68° SE 04:47:53 10° SW
SJ-6F 4.4 04:40:56 10° N 04:45:08 73° WNW 04:49:18 10° SSW
Lacrosse 5 rocket 3.4 04:47:25 13° SW 04:47:25 13° SW 04:48:44 10° SSW
Unknown 4.1 04:45:01 10° NW 04:47:42 35° NNE 04:50:23 10° E
Meteor PRIRODA 4.1 04:48:48 10° NNE 04:52:29 67° ESE 04:56:09 10° S
Cosmos 1703 Rocket 3.6 04:48:23 10° SSW 04:52:47 63° W 04:57:11 10° N
Aureole 2 Rocket 3.2 04:52:24 18° W 04:53:21 21° WNW 04:55:30 10° N
Cosmos 1666 2.6 04:51:45 10° NNW 04:55:29 63° W 04:59:12 10° S
PSLV R/B 4.3 04:51:39 10° NNE 04:55:40 66° ESE 04:59:34 10° S
Sich 1 Rocket 3.6 04:51:34 10° N 04:56:03 88° E 05:00:32 10° S
Meteor 1-31 Rocket 2.7 04:53:33 10° N 04:57:27 69° WNW 05:01:19 10° SSW
BREEZE-M DEB (TANK) 3.0 04:55:03 12° W 04:58:44 45° NNW 05:01:03 10° ENE
ATLAS 3B R/B 3.8 04:53:56 11° W 04:59:06 28° NNW 05:04:41 10° NNE
Cosmos 1340 3.5 04:56:13 10° NNW 04:59:29 28° W 05:02:43 10° SSW
Okean 1 3.7 04:56:50 10° S 05:00:45 69° E 05:04:42 10° NNE
Cosmos 2221 Rocket 4.3 04:56:32 10° S 05:00:51 59° E 05:05:12 10° NNE
H-2A R/B 3.4 04:58:06 10° N 05:01:19 26° WNW 05:04:31 10° SW
IDEFIX/ARIANE 42P 3.5 04:57:53 10° N 05:02:25 30° WNW 05:06:56 10° SW
Cosmos 1553 Rocket 4.4 04:57:09 10° NNW 05:02:50 38° W 05:08:26 10° SSW
Cosmos 1975 3.8 05:01:45 10° N 05:05:45 54° ENE 05:09:44 10° SSE
Helios 1A Rocket 3.9 05:03:06 10° NNE 05:07:05 51° E 05:11:04 10° S
Cosmos 2084 Rocket 4.4 05:04:05 10° WNW 05:07:45 26° WSW 05:11:22 10° S
Cosmos 2315 Rocket 4.0 05:05:15 10° N 05:11:30 88° W 05:17:43 10° S
Meteor 1-18 Rocket 4.4 05:07:15 10° S 05:12:50 82° E 05:18:33 10° NNE
Cosmos 1536 4.0 05:09:52 10° NW 05:12:56 22° W 05:15:59 10° SW
BREEZE-M DEB (TANK) 4.4 05:05:41 10° SSW 05:13:20 32° SSE 05:16:22 10° E
Cosmos 1346 Rocket 4.1 05:10:24 10° NW 05:13:28 20° W 05:16:30 10° SW
USA 267 3.7 05:09:26 10° ESE 05:15:54 66° NNE 05:22:23 10° NW
Okean 1-7 3.5 05:13:34 10° SSW 05:17:44 41° WNW 05:21:56 10° N
Cosmos 44 Rocket 3.7 05:13:39 10° SW 05:18:31 48° NW 05:23:18 10° NNE
BREEZE-M DEB (TANK) 3.0 05:14:48 10° WNW 05:21:02 61° SW 05:23:41 10° SE
